Wind_Speed
9 9 9 8 7 8 8 7 7 6 6 5 6 6 6 7 7 7 8 7 7 8
7 8 8 7 7 8 8 7 7 8 8 7 7 8 8 9 9 10 10 10 10 11
5 5 5 5 6 7 6 7 8 9 8 8 8 9 10 11 11 12 12 12 13 14
5 3 3 2 2 4 5 5 6 7 8 9 9 10 11 12 12 14 15 15 15 17
16 14 13 11 7 3 3 3 3 5 6 7 9 10 11 13 13 14 16 16 15 17
18 16 15 13 10 8 6 6 6 6 7 8 9 10 10 11 12 14 14 15 17 17
20 18 17 15 14 13 12 11 11 10 9 9 9 9 10 10 11 13 15 16 17 18
17 16 15 15 14 13 13 12 11 11 11 11 10 11 14 15 16 17 18 19 19 20
14 14 14 13 13 12 12 12 13 13 14 15 15 15 16 15 17 18 18 20 20 19
11 11 12 12 12 13 14 14 15 16 17 18 18 19 20 20 20 21 22 22 20 21
10 12 12 12 12 13 14 15 17 17 18 19 20 21 23 24 24 24 24 23 23 22
8 10 11 13 15 16 18 19 21 21 22 23 25 25 25 26 26 27 26 25 25 23
11 13 15 17 18 19 21 23 24 26 26 27 28 27 26 26 26 25 25 26 22 21
13 15 16 18 20 22 23 24 26 27 27 26 25 26 23 20 21 25 28 27 23 22
Wind_Direction
217 225 232 238 242 243 243 250 252 262 270 269 271 276 280 280 286 289 286 284 282 280
225 233 242 246 247 255 255 258 260 269 274 271 273 279 283 281 284 284 284 284 285 285
231 244 251 255 261 270 278 273 269 278 286 285 284 283 284 286 289 286 286 286 286 287
106 143 187 224 290 302 297 286 285 291 294 294 291 290 288 289 291 286 287 287 286 290
88 92 90 82 74 73 69 43 355 327 321 309 305 306 304 301 298 296 295 298 298 295
76 74 69 64 57 47 32 14 358 346 345 339 332 324 318 313 306 301 299 300 301 300
70 68 65 62 57 52 45 39 33 26 15 360 351 334 318 315 310 304 303 302 300 300
72 68 64 57 50 43 36 29 21 9 1 351 344 332 326 319 316 315 313 310 309 306
64 55 47 39 29 20 11 2 354 349 342 336 332 329 327 323 323 321 321 320 318 316
46 37 25 14 4 356 348 340 336 332 330 324 319 321 321 319 313 309 310 310 309 310
22 11 360 350 341 335 333 331 327 323 321 317 315 316 315 313 308 304 305 305 304 304
354 342 338 336 333 330 327 326 323 323 321 317 315 315 314 313 307 301 300 301 300 295
339 335 331 330 328 327 325 322 323 320 319 318 314 316 316 314 307 301 306 307 299 296
334 332 330 325 322 322 322 321 320 317 317 316 315 316 317 318 313 310 304 300 295 296
Height
811 812 814 815 817 818 818 818 818 819 819 819 819 819 819 819 819 819 818 817 816 816
809 810 812 813 815 816 817 817 817 818 818 817 817 818 817 817 817 817 816 815 814 814
807 808 810 812 813 814 815 816 816 816 815 815 816 816 816 815 815 815 814 813 812 811
805 806 809 810 812 812 813 814 814 814 814 814 814 814 813 813 813 812 812 810 809 807
805 807 808 809 810 811 812 812 813 813 812 812 813 812 812 811 811 810 809 807 806 804
807 808 809 810 811 811 812 812 811 811 811 811 810 810 809 809 808 807 805 804 802 801
811 811 811 812 812 812 812 812 811 810 810 809 809 808 807 806 804 803 801 800 799 797
814 814 814 814 814 813 813 813 812 811 810 809 808 807 805 804 802 800 797 796 794 793
815 815 815 815 814 814 814 813 812 811 809 808 806 805 804 802 799 797 795 793 791 789
816 816 815 815 814 814 813 812 811 809 808 806 804 803 801 799 797 794 792 790 787 785
815 815 815 816 815 814 813 811 809 807 806 803 801 799 797 795 792 790 788 785 783 781
816 817 816 815 813 811 809 807 805 803 801 799 797 795 793 790 787 783 781 780 778 777
815 814 813 811 809 807 805 803 801 798 796 794 791 790 787 785 782 778 776 774 772 771
812 811 810 809 807 805 802 799 797 794 792 790 788 784 783 781 778 775 772 769 766 765